[[{"header":{"parameterUnit":"m.s-1","parameterCategory":1,"la1":30.2992,"la2":30.254,"lo1":-89.0895,"lo2":-89.0443,"dy":0.0025,"dx":0.0025,"nx":19,"ny":19,"refTime":"2026-05-12T21:00:00:Z","depth":0,"parameterNumber":2,"parameterNumberName":"U-component_of_WINDS"},"data":[0,0,0,-1.5222,-1.5222,-1.5199,-1.5198,-1.5186,-1.5186,0,0,0,0,0,0,0,0,0,0,0,-1.524,-1.524,-1.5222,-1.5222,-1.5199,-1.5198,-1.5186,-1.5186,0,0,0,0,0,0,0,0,0,0,0,-1.524,-1.524,-1.5241,-1.5222,-1.5199,-1.5198,-1.5186,-1.5198,0,0,0,0,0,0,0,0,0,0,-1.5217,-1.5244,-1.524,-1.5241,-1.5222,-1.5199,-1.5198,-1.5198,-1.5197,-1.5204,0,-1.5214,0,-1.52,-1.5186,-1.5187,0,0,0,-1.5214,-1.5245,-1.5229,-1.5241,-1.5222,-1.5199,-1.5207,-1.5197,-1.5196,-1.5203,-1.5213,-1.5212,-1.52,-1.5187,-1.5187,-1.5256,-1.5257,0,0,-1.5216,-1.5242,-1.523,-1.5229,-1.5233,-1.5208,-1.5206,-1.5196,-1.5209,-1.5213,-1.5212,-1.5199,-1.5187,-1.5187,-1.5255,-1.5256,0,0,0,-1.5225,-1.5243,-1.5227,-1.523,-1.5224,-1.5207,-1.5206,-1.521,-1.5202,-1.5212,-1.5199,-1.5187,-1.5187,-1.5255,-1.5256,-1.5316,0,0,0,-1.5225,-1.5248,-1.5228,-1.5244,-1.5225,-1.5217,-1.522,-1.5203,-1.5201,-1.5199,-1.5187,-1.5187,-1.5254,-1.5255,-1.5313,-1.5341,0,0,0,-1.5238,-1.525,-1.525,-1.5245,-1.5236,-1.5216,-1.5208,-1.5202,-1.5194,-1.5187,-1.5187,-1.5253,-1.5255,-1.531,-1.5336,-1.5368,0,0,0,-1.526,-1.5304,-1.5251,-1.5296,-1.5236,-1.5253,-1.5207,-1.5219,-1.522,-1.5187,-1.5254,-1.5256,-1.5309,-1.5333,-1.5365,-1.5401,-1.5418,0,0,-1.533,-1.5313,-1.5338,-1.529,-1.5323,-1.5255,-1.5297,-1.5273,-1.5248,-1.5255,-1.5256,-1.5314,-1.5336,-1.5368,-1.5501,-1.5515,0,0,0,-1.5369,-1.5387,-1.539,-1.5392,-1.5374,-1.5362,-1.5328,-1.5319,-1.5324,-1.5257,-1.5332,-1.5345,-1.5362,-1.5378,-1.539,-1.5404,-1.5264,-1.5263,-1.5263,-1.5508,-1.5474,-1.5511,-1.5474,-1.5477,-1.5441,-1.544,-1.5422,-1.5387,-1.5405,-1.5408,-1.5493,-1.5512,-1.5521,-1.5536,-1.5422,-1.5422,-1.5423,-1.5423,-1.561,-1.5631,-1.5581,-1.5601,-1.5564,-1.558,-1.5547,-1.5522,-1.5532,-1.5488,-1.5502,-1.5459,-1.5537,-1.5548,-1.5427,-1.5426,-1.5426,-1.5425,-1.5425,-1.5699,-1.5703,-1.569,-1.569,-1.5693,-1.5653,-1.5665,-1.563,-1.5598,-1.5611,-1.5611,-1.5609,-1.5605,-1.5613,-1.5613,-1.5613,-1.5614,-1.5614,-1.5614,-1.5797,-1.5781,-1.5795,-1.578,-1.5776,-1.5768,-1.5732,-1.5727,-1.5714,-1.5688,-1.5688,-1.5652,-1.555,-1.5527,-1.5619,-1.5618,-1.5617,-1.5617,-1.5616,-1.5917,-1.5884,-1.5906,-1.5903,-1.5881,-1.5887,-1.5842,-1.5837,-1.5828,-1.5835,-1.5795,-1.5725,-1.5705,-1.5696,-1.5676,-1.5801,-1.5801,-1.5801,-1.5801,-1.5993,-1.5979,-1.5994,-1.5991,-1.5984,-1.5945,-1.5972,-1.5944,-1.591,-1.5903,-1.5879,-1.5849,-1.5841,-1.5826,-1.5814,-1.5795,-1.5948,-1.5948,-1.5948,-1.6066,-1.6049,-1.6079,-1.6045,-1.6025,-1.601,-1.6034,-1.6032,-1.5987,-1.5953,-1.5897,-1.589,-1.5842,-1.5827,-1.5795,-1.5777,-1.5742,0,0]},{"header":{"parameterUnit":"m.s-1","parameterCategory":1,"la1":30.2992,"la2":30.254,"lo1":-89.0895,"lo2":-89.0443,"dy":0.0025,"dx":0.0025,"nx":19,"ny":19,"refTime":"2026-05-12T21:00:00:Z","depth":0,"parameterNumber":3,"parameterNumberName":"V-component_of_WINDS"},"data":[0,0,0,-4.7447,-4.7447,-4.7427,-4.7426,-4.7428,-4.7428,0,0,0,0,0,0,0,0,0,0,0,-4.7469,-4.7469,-4.7447,-4.7447,-4.7427,-4.7426,-4.7428,-4.7428,0,0,0,0,0,0,0,0,0,0,0,-4.7469,-4.7469,-4.747,-4.7447,-4.7427,-4.7426,-4.7428,-4.7434,0,0,0,0,0,0,0,0,0,0,-4.7448,-4.7485,-4.7469,-4.747,-4.7447,-4.7427,-4.7426,-4.7433,-4.7433,-4.7449,0,-4.7467,0,-4.7448,-4.743,-4.743,0,0,0,-4.7435,-4.7485,-4.7465,-4.747,-4.7447,-4.7427,-4.7432,-4.7433,-4.7433,-4.7449,-4.7467,-4.7466,-4.7448,-4.7431,-4.7431,-4.7561,-4.7562,0,0,-4.7436,-4.7474,-4.7465,-4.7465,-4.747,-4.7433,-4.7432,-4.7432,-4.7455,-4.7467,-4.7466,-4.7448,-4.7431,-4.7431,-4.756,-4.7561,0,0,0,-4.7447,-4.7476,-4.7454,-4.7466,-4.746,-4.7433,-4.7431,-4.7454,-4.7444,-4.7465,-4.7448,-4.7431,-4.7431,-4.7558,-4.756,-4.7656,0,0,0,-4.7447,-4.7482,-4.7456,-4.7479,-4.7461,-4.7457,-4.7454,-4.7444,-4.7443,-4.7448,-4.7431,-4.7431,-4.7557,-4.7559,-4.765,-4.7695,0,0,0,-4.7465,-4.7484,-4.7486,-4.7481,-4.7474,-4.7456,-4.7446,-4.7443,-4.7433,-4.743,-4.7432,-4.7556,-4.7559,-4.7645,-4.7687,-4.7741,0,0,0,-4.7495,-4.7572,-4.7489,-4.7568,-4.7474,-4.7515,-4.7445,-4.7474,-4.7483,-4.7431,-4.7557,-4.756,-4.7644,-4.7682,-4.7736,-4.7794,-4.7821,0,0,-4.7614,-4.7588,-4.7631,-4.7556,-4.7622,-4.7515,-4.7595,-4.7566,-4.7531,-4.7553,-4.7556,-4.7652,-4.7686,-4.774,-4.7961,-4.7983,0,0,0,-4.7682,-4.7714,-4.7723,-4.7733,-4.7713,-4.77,-4.7655,-4.7645,-4.7661,-4.755,-4.7684,-4.7704,-4.7733,-4.7759,-4.7778,-4.7802,-4.7573,-4.7573,-4.7573,-4.7906,-4.7856,-4.7925,-4.7873,-4.7884,-4.7837,-4.7841,-4.7819,-4.7766,-4.7799,-4.7805,-4.7945,-4.7977,-4.7991,-4.8016,-4.7831,-4.7831,-4.7832,-4.7832,-4.8076,-4.8114,-4.8041,-4.8082,-4.8029,-4.8063,-4.8021,-4.7982,-4.8006,-4.7936,-4.796,-4.789,-4.8017,-4.8036,-4.7839,-4.7837,-4.7837,-4.7836,-4.7836,-4.8218,-4.8228,-4.8213,-4.8222,-4.8236,-4.818,-4.8206,-4.8157,-4.811,-4.8134,-4.8136,-4.8134,-4.8127,-4.8138,-4.8139,-4.8139,-4.814,-4.814,-4.814,-4.8372,-4.8352,-4.838,-4.8366,-4.8366,-4.8359,-4.8313,-4.8311,-4.8297,-4.8259,-4.8259,-4.8204,-4.8038,-4.7998,-4.8148,-4.8146,-4.8145,-4.8145,-4.8144,-4.8564,-4.8513,-4.8557,-4.8557,-4.8535,-4.8552,-4.8488,-4.8489,-4.8481,-4.8496,-4.8434,-4.832,-4.829,-4.8275,-4.8241,-4.8444,-4.8444,-4.8444,-4.8444,-4.8685,-4.8664,-4.8698,-4.8701,-4.8699,-4.8646,-4.8697,-4.8662,-4.8617,-4.8609,-4.8572,-4.8523,-4.851,-4.8488,-4.8468,-4.8436,-4.8684,-4.8684,-4.8684,-4.8801,-4.8778,-4.8831,-4.8786,-4.8766,-4.875,-4.8797,-4.8804,-4.8742,-4.8693,-4.8602,-4.8592,-4.8512,-4.8489,-4.8439,-4.8409,-4.8349,0,0]}]]